STARLINK-30330, 57636

Orbit data source: Space-Track

STARLINK-30330, 57636 is a payload satellite owned by SpaceX/Seattle (US) in LEO that was launched on Thu, 17 Aug 2023 UTC via an FALCON 9 launch vehicle from the Air Force Eastern Test Range (AFETR). Payload-class satellites include a variety of spacecraft equipped with specific instruments for various scientific and technological missions. These include communications satellites like Starlink; space stations such as the ISS; scientific satellites like the Hubble; Earth observation satellites from companies like Planet Labs, Umbra, and HawkEye 360; GPS; miniature CubeSats for education and research; and military/defense satellites.

Loading next visibility...
Identifier
57636, 2023-122E
Orbit
LEO
Country
Flag of USUS
Related business
Manufacturer
SpaceX/Seattle
Mission
Operational Commercial Communications
Bus & Motor
STARLINK V2M, Unknown motor
Mass
730 kg wet, ~700 kg dry
Launch date (UTC)
2023-08-17 (3 years ago)
Launch vehicle
FALCON 9
Launch site
Air Force Eastern Test Range (AFETR)
Object type
Payload
Rocket body
Debris
Shape & HBR
Box + 2 Pan, 17.7 m
Radar Cross Section
33.884 m², Large (>1 m²)

Expand to show TLE details & history
Last TLE update: 3 days ago

TLE from 3 days ago
0 STARLINK-30330
1 57636U 23122E   26170.63172673  .00000537  00000-0  29047-4 0  9999
2 57636  43.0023 237.1360 0001179 274.8515  85.2202 15.27581621157799
Epoch: 2026-06-19T15:09Z
TLE epoch observation values (Epoch: 2026-06-19T15:09:41.189Z)
Latitude
-0.00002°
Longitude
101.85643°
Altitude
482.753 km
Speed
7.626 km/s
True Right ascension
15h 48m 32s
True Declination
0° 00' 00"
Sunlit
Object was in full shadow at epoch
Visualization orbit readout
Latitude
Unknown
Longitude
Unknown
Altitude
Unknown
Speed
Unknown
Apparent Right ascension
Unknown
Apparent Declination
Unknown
Sunlit
N/A
Visualization observer readout
Local Sidereal Time
23:18:16
Azimuth
Unknown
Elevation
Unknown
Doppler factor
Unknown
Orbital elements
Apogee altitude
485.798 km
Perigee altitude
484.18 km
Semi-major axis
6,863.126 km
Eccentricity
0.00012
Inclination
43.0023°
RAAN
237.136°
Arg. of periapsis
274.8515°
True anomaly
85.23366°
Mean anomaly
85.2202°
Eccentric anomaly
85.22693°
Mean motion
3.81733 °/min
Orbital period
94.31 mins
BSTAR
0.000029047
Loading maneuver chart data...
Computing Atmospheric mass density...
Loading historical data...
Loading historical data...
Loading historical data...
Loading historical data...
Loading historical data...
Loading historical data...
Loading historical data...

Documentation

Showing up to 5 results
|